Aérodrome :
LOGIN :

S'inscrire | Disclaimer

   EN    FR    IT 

 










Légende :    VFR   VFR Marginal   IFR   IFR Intensif   IFR Très Intensif
Visi : 
Plafond : 
>= 8 km
>= 3000ft
5 à 8 km
1000 à 3000 ft
1500m à 5 km
500 à 1000 ft
800 à 1500m
200 à 500 ft
< 800m
< 200 ft
Symboles :   Orages  Brouillard  Fortes neiges  Fortes précipitations  Vent > 20 kt
SIGMETs :   Divers  Orages  Givrage  Turbulence  Onde Orograph.  Cendres Volcan.






- Altitude de l'aérodrome : 270 ft
- Code IATA : OXF


EGTK - Oxford (Kidlington)

DERNIER METAR :
  • 221420Z 31006KT 9999 BKN020 06/03 Q1037

METARs EXPIRÉS :
  • 221350Z 31008KT 9999 BKN020 06/03 Q1037
  • 221320Z 32008KT 290V350 9999 BKN020 06/03 Q1037
  • 221250Z 32007KT 9999 BKN020 06/03 Q1037
  • 221220Z 33008KT 9999 BKN019 06/03 Q1037
  • 221150Z 32009KT 290V350 9999 BKN018 06/03 Q1037

TAF TAF EGTK
Valide du 22 à 15h jusqu'au 22 à 23h UTC


221357Z 2215/2223 31008KT 9999 BKN020



MET'MAP, la Météo Aéronautique d'un coup d'oeil ! - Copyright ORBIFLY Décembre 2007 - Disclaimer

ORBIFLY MET'MAP TEAM :

Programmation & Développement : Alexandra Zaïnal
Sur une idée originale de : Baudouin d'Aumeries
Assistance à la programmation : Marc-Olivier Méhu
Soutien technique & logistique : Manuel Goepfert

Contact : metmap@orbifly.com




SOURCES & CREDITS :

   NOAA